TimeCDT,TemperatureF,Dew PointF,Humidity,Sea Level PressureIn,VisibilityMPH,Wind Direction,Wind SpeedMPH,Gust SpeedMPH,PrecipitationIn,Events,Conditions,WindDirDegrees,DateUTC
12:15 AM,78.1,75.6,92,29.97,10.0,East,3.5,-,N/A,,Clear,100,2013-09-07 05:15:00
12:35 AM,77.9,75.4,92,29.97,10.0,Calm,Calm,-,N/A,,Clear,0,2013-09-07 05:35:00
12:55 AM,77.7,75.4,92,29.97,10.0,Calm,Calm,-,N/A,,Clear,0,2013-09-07 05:55:00
1:15 AM,76.8,75.2,95,29.97,10.0,Calm,Calm,-,N/A,,Clear,0,2013-09-07 06:15:00
1:35 AM,76.6,75.2,95,29.98,10.0,Calm,Calm,-,N/A,,Clear,0,2013-09-07 06:35:00
1:55 AM,76.6,75.2,95,29.98,10.0,East,3.5,-,N/A,,Clear,90,2013-09-07 06:55:00
2:15 AM,76.1,74.8,96,29.98,10.0,East,3.5,-,N/A,,Clear,90,2013-09-07 07:15:00
2:35 AM,76.3,75.0,96,29.97,10.0,Calm,Calm,-,N/A,,Clear,0,2013-09-07 07:35:00
2:55 AM,76.1,74.7,95,29.97,10.0,Calm,Calm,-,N/A,,Clear,0,2013-09-07 07:55:00
3:15 AM,76.1,74.7,95,29.96,10.0,Calm,Calm,-,N/A,,Clear,0,2013-09-07 08:15:00
3:35 AM,75.7,74.5,96,29.95,10.0,Calm,Calm,-,N/A,,Clear,0,2013-09-07 08:35:00
3:55 AM,75.9,74.8,96,29.96,10.0,East,3.5,-,N/A,,Clear,90,2013-09-07 08:55:00
4:15 AM,75.6,74.5,96,29.96,10.0,Calm,Calm,-,N/A,,Clear,0,2013-09-07 09:15:00
4:55 AM,76.1,74.8,96,29.96,10.0,East,3.5,-,N/A,,Clear,90,2013-09-07 09:55:00
5:15 AM,75.7,74.5,96,29.97,10.0,East,3.5,-,N/A,,Clear,90,2013-09-07 10:15:00
5:35 AM,75.7,74.7,96,29.97,10.0,NE,4.6,-,N/A,,Clear,50,2013-09-07 10:35:00
5:55 AM,75.9,74.8,96,29.97,10.0,NE,4.6,-,N/A,,Clear,50,2013-09-07 10:55:00
6:15 AM,75.9,74.7,96,29.97,10.0,NE,4.6,-,N/A,,Clear,50,2013-09-07 11:15:00
6:35 AM,76.3,75.2,96,29.98,10.0,NE,5.8,-,N/A,,Clear,40,2013-09-07 11:35:00
6:55 AM,76.6,75.2,95,29.98,10.0,ENE,4.6,-,N/A,,Scattered Clouds,60,2013-09-07 11:55:00
7:15 AM,76.1,74.8,96,29.99,10.0,NE,3.5,-,N/A,,Scattered Clouds,50,2013-09-07 12:15:00
7:35 AM,76.3,75.0,96,29.99,10.0,East,3.5,-,N/A,,Scattered Clouds,80,2013-09-07 12:35:00
7:55 AM,77.4,75.4,94,30.00,10.0,ENE,4.6,-,N/A,,Mostly Cloudy,60,2013-09-07 12:55:00
8:15 AM,79.0,75.9,90,30.00,10.0,ENE,3.5,-,N/A,,Mostly Cloudy,60,2013-09-07 13:15:00
8:35 AM,80.2,75.9,87,30.00,10.0,SSE,3.5,-,N/A,,Scattered Clouds,150,2013-09-07 13:35:00
8:55 AM,81.1,75.6,83,30.00,10.0,Calm,Calm,-,N/A,,Clear,0,2013-09-07 13:55:00
9:15 AM,82.6,75.6,79,30.00,10.0,Calm,Calm,-,N/A,,Scattered Clouds,0,2013-09-07 14:15:00
9:35 AM,84.6,76.1,76,30.01,10.0,ENE,3.5,-,N/A,,Scattered Clouds,60,2013-09-07 14:35:00
9:55 AM,85.8,76.5,73,30.01,10.0,ENE,4.6,-,N/A,,Clear,60,2013-09-07 14:55:00
10:15 AM,86.9,76.6,71,30.01,10.0,NNE,4.6,-,N/A,,Clear,30,2013-09-07 15:15:00
10:35 AM,87.4,77.2,71,30.01,10.0,Calm,Calm,-,N/A,,Scattered Clouds,0,2013-09-07 15:35:00
10:55 AM,88.3,77.0,69,30.02,10.0,East,5.8,-,N/A,,Mostly Cloudy,80,2013-09-07 15:55:00
11:15 AM,86.9,77.0,72,30.02,5.0,SE,5.8,-,0.01,Rain,Heavy Rain,130,2013-09-07 16:15:00
11:35 AM,81.7,76.1,83,30.03,5.0,East,13.8,18.4,0.14,Rain,Heavy Rain,90,2013-09-07 16:35:00
11:55 AM,76.6,73.6,90,30.04,4.0,NNE,5.8,-,0.21,Rain,Heavy Rain,30,2013-09-07 16:55:00
12:15 PM,76.1,73.8,92,30.03,5.0,Calm,Calm,-,0.03,Rain,Light Rain,0,2013-09-07 17:15:00
12:35 PM,76.3,73.9,92,30.02,10.0,SE,3.5,-,0.03,Rain,Light Rain,140,2013-09-07 17:35:00
12:55 PM,76.6,74.3,92,30.03,10.0,North,4.6,-,0.04,,Clear,10,2013-09-07 17:55:00
1:15 PM,76.8,74.7,93,30.01,10.0,ENE,3.5,-,N/A,,Light Drizzle,60,2013-09-07 18:15:00
1:35 PM,77.2,74.7,92,30.01,10.0,Calm,Calm,-,N/A,,Clear,0,2013-09-07 18:35:00
1:55 PM,78.4,75.0,89,29.99,10.0,ESE,3.5,-,N/A,,Clear,120,2013-09-07 18:55:00
2:15 PM,81.0,75.7,84,29.98,10.0,ENE,4.6,-,N/A,,Clear,70,2013-09-07 19:15:00
2:35 PM,82.2,75.9,81,29.97,10.0,ENE,5.8,-,N/A,,Clear,70,2013-09-07 19:35:00
2:55 PM,84.0,76.3,77,29.97,10.0,East,6.9,-,N/A,,Clear,100,2013-09-07 19:55:00
3:15 PM,86.2,77.2,74,29.97,10.0,East,9.2,-,N/A,,Clear,100,2013-09-07 20:15:00
3:35 PM,87.3,77.5,73,29.96,10.0,ESE,6.9,-,N/A,,Clear,110,2013-09-07 20:35:00
3:55 PM,87.3,77.4,72,29.96,10.0,East,9.2,-,N/A,,Clear,100,2013-09-07 20:55:00
4:15 PM,86.7,76.8,72,29.94,10.0,ESE,8.1,-,N/A,,Scattered Clouds,110,2013-09-07 21:15:00
4:35 PM,87.1,76.6,71,29.95,10.0,SE,6.9,-,N/A,,Scattered Clouds,130,2013-09-07 21:35:00
4:55 PM,87.4,76.8,71,29.95,10.0,ESE,9.2,-,N/A,,Scattered Clouds,110,2013-09-07 21:55:00
5:15 PM,87.3,75.9,69,29.95,10.0,ESE,10.4,-,N/A,,Scattered Clouds,120,2013-09-07 22:15:00
5:35 PM,86.9,75.7,69,29.94,10.0,ENE,8.1,-,N/A,,Scattered Clouds,70,2013-09-07 22:35:00
5:55 PM,84.7,75.4,73,29.95,10.0,NE,9.2,-,N/A,,Scattered Clouds,40,2013-09-07 22:55:00
6:15 PM,83.1,75.6,78,29.95,10.0,ENE,3.5,-,N/A,,Clear,70,2013-09-07 23:15:00
6:35 PM,84.2,76.5,77,29.94,10.0,ENE,4.6,-,N/A,,Clear,60,2013-09-07 23:35:00
6:55 PM,84.7,77.0,77,29.94,10.0,NE,3.5,-,N/A,Rain,Light Rain,50,2013-09-07 23:55:00
7:15 PM,83.7,77.7,82,29.94,10.0,East,4.6,-,N/A,Rain,Light Rain,90,2013-09-08 00:15:00
7:35 PM,82.6,77.7,85,29.94,10.0,East,5.8,-,N/A,,Clear,100,2013-09-08 00:35:00
7:55 PM,81.9,77.9,88,29.95,10.0,East,5.8,-,N/A,,Clear,90,2013-09-08 00:55:00
8:15 PM,81.1,77.9,90,29.95,10.0,East,4.6,-,N/A,,Clear,90,2013-09-08 01:15:00
8:35 PM,80.8,77.4,89,29.95,10.0,East,5.8,-,N/A,,Clear,80,2013-09-08 01:35:00
8:55 PM,80.4,76.6,88,29.96,10.0,ENE,4.6,-,N/A,,Clear,70,2013-09-08 01:55:00
9:15 PM,79.5,76.5,90,29.97,10.0,NE,5.8,-,N/A,,Clear,50,2013-09-08 02:15:00
9:35 PM,79.0,76.8,93,29.97,10.0,Calm,Calm,-,N/A,,Clear,0,2013-09-08 02:35:00
9:55 PM,78.4,76.3,93,29.96,10.0,ENE,3.5,-,N/A,,Clear,70,2013-09-08 02:55:00
10:15 PM,78.1,76.1,94,29.96,10.0,Calm,Calm,-,N/A,,Clear,0,2013-09-08 03:15:00
10:35 PM,78.3,76.1,93,29.95,10.0,East,3.5,-,N/A,,Clear,80,2013-09-08 03:35:00
10:55 PM,77.5,75.7,94,29.95,10.0,Calm,Calm,-,N/A,,Clear,0,2013-09-08 03:55:00
11:15 PM,77.0,75.6,95,29.95,10.0,NNE,3.5,-,N/A,,Clear,20,2013-09-08 04:15:00
11:35 PM,77.4,75.7,95,29.95,10.0,NE,3.5,-,N/A,,Clear,50,2013-09-08 04:35:00
11:55 PM,77.0,75.4,95,29.95,10.0,NNE,3.5,-,N/A,,Clear,30,2013-09-08 04:55:00